Tracking 20715 objects as of 27-May-2020
HD Live streaming from Space Station
objects crossing your sky now

CRYOCUBE

Track CRYOCUBE now!
10-day predictions
CRYOCUBE is classified as:


NORAD ID: 45258
Int'l Code: 1998-067RB
Perigee: 418.2 km
Apogee: 425.5 km
Inclination: 51.6 °
Period: 92.9 minutes
Semi major axis: 6792 km
RCS: Unknown
Launch date: November 20, 1998
Source: United States (US)
Launch site: TYURATAM MISSILE AND SPACE COMPLEX (TTMTR)

Uplink (MHz):
Downlink (MHz): 437.350/2402.500
Beacon (MHz):
Mode: 9600bps GMSK
Call sign: WJ2XOY
Status: Active

aabbcc
Your satellite tracking list
Your tracking list is empty




NASA's NSSDC Master Catalog

Two Line Element Set (TLE):
1 45258U 98067RB  20147.85819770 +.00003449 +00000-0 +66780-4 0  9994
2 45258 051.6417 093.2163 0005369 264.1328 095.9049 15.50698468015120
Source of the keplerian elements: AFSPC